Hourly Data Report for June 08, 2021

WRIGLEY A
NORTHWEST TERRITORIES
Current Station Operator: NAVCAN

63°12'35.000" N
123°26'12.000" W
149.70 m
2204005
YWY

Download Data

Hourly Data (June 2021)
Hourly Data Report for June 8, 2021
TIME
LST
Temp Definition
°C
Dew Point Definition
°C
Rel Hum Definition
%
Precip. Amount Definition
mm

Wind Dir Definition
10's deg

Wind Spd Definition
km/h
Visibility Definition
km
Stn Press Definition
kPa
Hmdx Definition


Wind Chill Definition


Weather Definition


00:00 11.0 -2.7 38 LegendMM 14 14 LegendMM 99.91     LegendNANA
01:00 8.9 0.7 57 LegendMM 17 9 LegendMM 99.94     LegendNANA
02:00 7.9 2.2 67 LegendMM 17 12 LegendMM 99.95     LegendNANA
03:00 7.6 -1.8 51 LegendMM 14 11 LegendMM 99.95     LegendNANA
04:00 7.9 -1.8 50 LegendMM 14 15 LegendMM 99.97     LegendNANA
05:00 7.5 -0.5 57 LegendMM 14 17 LegendMM 99.95     LegendNANA
06:00 7.8 0.5 60 LegendMM 14 11 LegendMM 99.95     LegendNANA
07:00 8.8 1.3 60 LegendMM 14 13 LegendMM 99.93     LegendNANA
08:00 9.3 1.6 58 LegendMM 14 14 LegendMM 99.91     LegendNANA
09:00 9.0 3.4 68 LegendMM 14 15 LegendMM 99.91     LegendNANA
10:00 10.2 3.0 61 LegendMM 15 19 LegendMM 99.88     LegendNANA
11:00 12.4 3.0 52 LegendMM 14 18 LegendMM 99.85     LegendNANA
12:00 15.3 2.5 42 LegendMM 14 23 LegendMM 99.78     LegendNANA
13:00 16.8 3.0 40 LegendMM 15 26 LegendMM 99.69     LegendNANA
14:00 18.4 3.6 37 LegendMM 15 26 LegendMM 99.61     LegendNANA
15:00 19.3 3.8 35 LegendMM 15 23 LegendMM 99.55     LegendNANA
16:00 18.2 3.9 38 LegendMM 15 18 LegendMM 99.52     LegendNANA
17:00 15.8 8.7 62 LegendMM 10 7 LegendMM 99.59     LegendNANA
18:00 14.3 9.6 73 LegendMM 14 12 LegendMM 99.59     LegendNANA
19:00 16.2 8.7 61 LegendMM 13 16 LegendMM 99.56     LegendNANA
20:00 15.4 7.6 59 LegendMM 14 13 LegendMM 99.57     LegendNANA
21:00 14.8 7.0 59 LegendMM 14 12 LegendMM 99.58     LegendNANA
22:00 14.3 7.6 64 LegendMM 14 12 LegendMM 99.61     LegendNANA
23:00 11.8 7.5 75 LegendMM 16 11 LegendMM 99.60     LegendNANA

Notes on Data Quality.

Legend

  • E = Estimated
  • M = Missing
  • NA = Not Available*
  • [empty] = Indicates an unobserved value
Date modified: